Skip Page Navigation
NASA JPL Caltech
NASA Logo - Jet Propulsion Laboratory + View the NASA Portal
+ Center for Near-Earth Object Studies
JPL Home Earth Solar System Stars & Galaxies Technology
JPL Solar System Dynamics
BODIES ORBITS EPHEMERIDES TOOLS PHYSICAL DATA DISCOVERY FAQ SITE MAP
IMPORTANT: The SSD Announcement email list is now available. Major changes are coming in the near future, including possible hostname and/or URL changes. To be notified of such changes, subscribe to this email list.

Please visit this page for more details.


JPL Small-Body Database Browser
Search: [ help ]  
136755 (1996 AH10)
Classification: Main-belt Asteroid          SPK-ID: 2136755
Ephemeris | Orbit Diagram | Orbital Elements | Mission Design | Physical Parameters | Discovery Circumstances ]

[ show orbit diagram ]
Orbital Elements at Epoch 2458600.5 (2019-Apr-27.0) TDB
Reference: JPL 17 (heliocentric ecliptic J2000)
 Element Value Uncertainty (1-sigma)   Units 
e .1512588936141827 5.3148e-08  
a 2.571029224180586 1.5322e-08 au
q 2.1821381882813 1.3248e-07 au
i 6.320741501853518 4.3187e-06 deg
node 284.7632206203049 5.1361e-05 deg
peri 248.0021683767705 5.3124e-05 deg
M 193.8119959044184 1.5041e-05 deg
tp 2459295.614131794956
(2021-Mar-22.11413179)
6.4857e-05 TDB
period 1505.771062165595
4.12
1.3461e-05
3.685e-08
d
yr
n .2390801689881389 2.1372e-09 deg/d
Q 2.959920260079873 1.764e-08 au
  Orbit Determination Parameters
   # obs. used (total)      500  
   data-arc span      8692 days (23.80 yr)  
   first obs. used      1996-01-13  
   last obs. used      2019-10-31  
   planetary ephem.      DE431  
   SB-pert. ephem.      SB431-N16  
   condition code      0  
   norm. resid. RMS      .53085  
   source      ORB  
   producer      Otto Matic  
   solution date      2019-Nov-07 16:04:50  

Additional Information
 Earth MOID = 1.19775 au 
 Jupiter MOID = 2.06446 au 
 T_jup = 3.405 
[ show covariance matrix ]

Ephemeris | Orbit Diagram | Orbital Elements | Mission Design | Physical Parameters | Discovery Circumstances ]

Physical Parameter Table
Parameter Symbol Value Units Sigma Reference Notes
absolute magnitude H 15.6   n/a MPO453850  

136755 (1996 AH10)          Discovered 1996-Jan-13 by Spacewatch at Kitt Peak
Reference: 20061205/Numbers.arcLast Updated: 2006-12-13

Alternate Designations
 1996 AH10 = 2000 AT56 
Ephemeris | Orbit Diagram | Orbital Elements | Mission Design | Physical Parameters | Discovery Circumstances ]
ABOUT SSD CREDITS/AWARDS PRIVACY/COPYRIGHT GLOSSARY LINKS
FirstGov
(server date/time)  
NASA Home Page
Site Manager:   Ryan S. Park
Webmaster  Alan B. Chamberlin